[[{"header":{"parameterUnit":"m.s-1","parameterCategory":1,"la1":30.2992,"la2":30.254,"lo1":-89.0895,"lo2":-89.0443,"dy":0.0025,"dx":0.0025,"nx":19,"ny":19,"refTime":"2026-04-29T21:00:00:Z","depth":0,"parameterNumber":2,"parameterNumberName":"U-component_of_WINDS"},"data":[0,0,0,-1.701,-1.7007,-1.6845,-1.6845,-1.6646,-1.6644,0,0,0,0,0,0,0,0,0,0,0,-1.707,-1.7069,-1.701,-1.7006,-1.6846,-1.6845,-1.6646,-1.6644,0,0,0,0,0,0,0,0,0,0,0,-1.707,-1.7069,-1.7068,-1.7006,-1.6846,-1.6845,-1.6647,-1.6764,0,0,0,0,0,0,0,0,0,0,-1.6918,-1.6988,-1.7069,-1.7068,-1.7005,-1.6846,-1.6845,-1.6769,-1.6756,-1.6725,0,-1.6707,0,-1.6673,-1.6632,-1.6632,0,0,0,-1.6995,-1.6999,-1.6945,-1.7068,-1.7004,-1.6846,-1.6915,-1.6762,-1.6748,-1.6708,-1.6704,-1.6696,-1.667,-1.6631,-1.663,-1.6498,-1.6498,0,0,-1.7004,-1.7046,-1.6955,-1.6936,-1.697,-1.692,-1.691,-1.6753,-1.6748,-1.6703,-1.6691,-1.6666,-1.663,-1.6629,-1.6499,-1.6498,0,0,0,-1.7037,-1.7053,-1.7002,-1.6945,-1.6916,-1.6916,-1.6904,-1.6755,-1.6736,-1.6689,-1.6664,-1.6629,-1.6627,-1.6499,-1.6498,-1.6536,0,0,0,-1.7042,-1.7072,-1.7006,-1.703,-1.6919,-1.6835,-1.691,-1.6747,-1.6727,-1.6665,-1.6629,-1.6625,-1.6499,-1.6499,-1.6535,-1.6546,0,0,0,-1.7076,-1.7076,-1.7057,-1.7033,-1.6966,-1.6837,-1.6808,-1.6741,-1.6713,-1.6632,-1.6624,-1.6499,-1.6499,-1.6535,-1.6544,-1.6522,0,0,0,-1.7122,-1.7092,-1.7059,-1.7014,-1.6968,-1.6864,-1.6808,-1.6727,-1.6662,-1.6628,-1.6499,-1.6498,-1.6534,-1.6544,-1.6521,-1.651,-1.651,0,0,-1.7107,-1.7092,-1.7061,-1.7027,-1.6941,-1.6885,-1.68,-1.6698,-1.6648,-1.6549,-1.6545,-1.6535,-1.6544,-1.6522,-1.6498,-1.6499,0,0,0,-1.707,-1.7049,-1.7017,-1.696,-1.6884,-1.6817,-1.6725,-1.6685,-1.66,-1.6609,-1.652,-1.6524,-1.6509,-1.6501,-1.6502,-1.6484,-1.6498,-1.6498,-1.6498,-1.7108,-1.705,-1.6994,-1.6916,-1.686,-1.6763,-1.671,-1.6639,-1.6595,-1.6574,-1.6544,-1.6538,-1.6531,-1.6531,-1.6513,-1.6535,-1.6535,-1.6535,-1.6535,-1.7078,-1.7038,-1.698,-1.6906,-1.6841,-1.6775,-1.6677,-1.6647,-1.6571,-1.6557,-1.654,-1.6528,-1.6534,-1.6514,-1.6537,-1.6537,-1.6536,-1.6536,-1.6536,-1.7095,-1.7066,-1.7022,-1.693,-1.6864,-1.6781,-1.6712,-1.6654,-1.6598,-1.6582,-1.6541,-1.654,-1.653,-1.6567,-1.6567,-1.6567,-1.6567,-1.6567,-1.6567,-1.7131,-1.708,-1.7032,-1.6947,-1.69,-1.683,-1.6729,-1.6678,-1.6606,-1.6568,-1.6568,-1.6522,-1.6547,-1.6553,-1.6566,-1.6566,-1.6566,-1.6566,-1.6566,-1.712,-1.7113,-1.704,-1.6993,-1.6885,-1.682,-1.6747,-1.6647,-1.6596,-1.6562,-1.6518,-1.6547,-1.6525,-1.6525,-1.6529,-1.6535,-1.6535,-1.6535,-1.6535,-1.7134,-1.7118,-1.7028,-1.6956,-1.6879,-1.6804,-1.6713,-1.6631,-1.6543,-1.6506,-1.6496,-1.6497,-1.6499,-1.6476,-1.6476,-1.6479,-1.6472,-1.6472,-1.6472,-1.7123,-1.7096,-1.7035,-1.6956,-1.6865,-1.6786,-1.6697,-1.6609,-1.6507,-1.6468,-1.6474,-1.6477,-1.6478,-1.6483,-1.6445,-1.6447,-1.6451,0,0]},{"header":{"parameterUnit":"m.s-1","parameterCategory":1,"la1":30.2992,"la2":30.254,"lo1":-89.0895,"lo2":-89.0443,"dy":0.0025,"dx":0.0025,"nx":19,"ny":19,"refTime":"2026-04-29T21:00:00:Z","depth":0,"parameterNumber":3,"parameterNumberName":"V-component_of_WINDS"},"data":[0,0,0,-2.7746,-2.7739,-2.738,-2.7379,-2.6924,-2.692,0,0,0,0,0,0,0,0,0,0,0,-2.7864,-2.7862,-2.7746,-2.7738,-2.7381,-2.7379,-2.6925,-2.692,0,0,0,0,0,0,0,0,0,0,0,-2.7865,-2.7862,-2.7859,-2.7737,-2.7381,-2.7379,-2.6926,-2.7192,0,0,0,0,0,0,0,0,0,0,-2.7538,-2.7662,-2.7863,-2.7859,-2.7735,-2.7381,-2.7378,-2.7205,-2.7175,-2.7091,0,-2.7029,0,-2.6968,-2.6891,-2.6889,0,0,0,-2.7725,-2.7687,-2.758,-2.7859,-2.7731,-2.7382,-2.7538,-2.7188,-2.7155,-2.7052,-2.7022,-2.7005,-2.6961,-2.6888,-2.6886,-2.6463,-2.6462,0,0,-2.7745,-2.7804,-2.7604,-2.756,-2.7627,-2.755,-2.7527,-2.7168,-2.7135,-2.7021,-2.6994,-2.6953,-2.6885,-2.6882,-2.6464,-2.6463,0,0,0,-2.781,-2.7818,-2.772,-2.7579,-2.7515,-2.754,-2.7514,-2.7151,-2.7114,-2.6989,-2.6948,-2.6883,-2.6877,-2.6466,-2.6464,-2.6452,0,0,0,-2.7821,-2.7856,-2.7729,-2.7761,-2.7522,-2.7331,-2.7505,-2.7139,-2.7097,-2.695,-2.6883,-2.6873,-2.6467,-2.6465,-2.6456,-2.6433,0,0,0,-2.7883,-2.7863,-2.7817,-2.7765,-2.7615,-2.7335,-2.7278,-2.7129,-2.7072,-2.6889,-2.6872,-2.6468,-2.6465,-2.6459,-2.6439,-2.6336,0,0,0,-2.7962,-2.7809,-2.7818,-2.7629,-2.7619,-2.7336,-2.728,-2.7063,-2.6906,-2.688,-2.6467,-2.6464,-2.646,-2.6442,-2.634,-2.6257,-2.6231,0,0,-2.78,-2.7791,-2.7676,-2.7673,-2.7406,-2.7386,-2.711,-2.6906,-2.683,-2.6587,-2.6575,-2.6455,-2.6439,-2.6337,-2.607,-2.6049,0,0,0,-2.7644,-2.7561,-2.7477,-2.7335,-2.7181,-2.7043,-2.6877,-2.68,-2.6593,-2.6721,-2.6391,-2.638,-2.6317,-2.6274,-2.6256,-2.6195,-2.6449,-2.6449,-2.6449,-2.7492,-2.7412,-2.7213,-2.7089,-2.695,-2.6781,-2.6657,-2.6523,-2.6477,-2.64,-2.6325,-2.6175,-2.6127,-2.6113,-2.6051,-2.628,-2.628,-2.628,-2.628,-2.7242,-2.7109,-2.7058,-2.6847,-2.6758,-2.6575,-2.6404,-2.6378,-2.6188,-2.6225,-2.6165,-2.6207,-2.6094,-2.6034,-2.6278,-2.6279,-2.6279,-2.6279,-2.6279,-2.7129,-2.7051,-2.6968,-2.6752,-2.6593,-2.6469,-2.6292,-2.6217,-2.6143,-2.6085,-2.5993,-2.5993,-2.5977,-2.6049,-2.6048,-2.6048,-2.6047,-2.6047,-2.6046,-2.7041,-2.6948,-2.6813,-2.6639,-2.6536,-2.6391,-2.622,-2.6112,-2.5973,-2.5931,-2.593,-2.5886,-2.6103,-2.6155,-2.6038,-2.6039,-2.604,-2.6041,-2.6042,-2.6806,-2.6848,-2.6639,-2.6537,-2.6324,-2.6167,-2.6078,-2.5866,-2.5766,-2.5678,-2.5649,-2.5825,-2.5806,-2.5819,-2.586,-2.5674,-2.5674,-2.5674,-2.5674,-2.6705,-2.6693,-2.646,-2.6301,-2.6137,-2.6035,-2.5788,-2.5653,-2.5516,-2.5446,-2.5464,-2.5516,-2.5533,-2.5503,-2.5523,-2.556,-2.5301,-2.5301,-2.5301,-2.6551,-2.652,-2.633,-2.6208,-2.6036,-2.5886,-2.5651,-2.546,-2.5314,-2.5284,-2.5388,-2.5404,-2.5486,-2.5519,-2.5485,-2.5518,-2.5585,0,0]}]]